Overview Statistics Trail Chart Weather Telemetry Raw packets
 

This is the latest recevied weather packets stored in our database for station/object W5ADC. If no packets are shown the sender has not sent any weather packets the latest 10 day(s).

<< 108 109 110 111 112 113 114 >>
Time Temp. Humidity Pressure Rain* Wind** Luminosity Snow
1787791080 35.56° C 45% 1008.4 hPa 0 mm - 42 W/m² -
1787790776 36.11° C 40% 1008.1 hPa 0 mm - 48 W/m² -
1787790475 36.11° C 40% 1008.1 hPa 0 mm - 57 W/m² -
1787790173 36.67° C 38% 1008.2 hPa 0 mm - 64 W/m² -
1787789870 36.67° C 38% 1008.1 hPa 0 mm - 57 W/m² -
1787789566 36.67° C 38% 1008.1 hPa 0 mm - 51 W/m² -
1787789265 36.11° C 39% 1008 hPa 0 mm - 44 W/m² -
1787788961 35.56° C 40% 1008.3 hPa 0 mm - 25 W/m² -
1787788658 35.56° C 40% 1008.1 hPa 0 mm - 21 W/m² -
1787788353 35.56° C 41% 1008.3 hPa 0 mm - 21 W/m² -
1787788048 35.56° C 40% 1008.5 hPa 0 mm - 21 W/m² -
1787787743 36.11° C 41% 1008.6 hPa 0 mm - 23 W/m² -
1787787442 36.11° C 40% 1008.5 hPa 0 mm - 26 W/m² -
1787787137 36.67° C 39% 1008.3 hPa 0 mm - 30 W/m² -
1787786831 36.67° C 39% 1008.4 hPa 0 mm - 33 W/m² -
1787786527 36.67° C 38% 1008.5 hPa 0 mm - 34 W/m² -
1787786222 36.67° C 39% 1008.1 hPa 0 mm - 32 W/m² -
1787785917 36.67° C 38% 1008.3 hPa 0 mm - 32 W/m² -
1787785612 37.22° C 37% 1008.1 hPa 0 mm - 32 W/m² -
1787785307 37.22° C 37% 1008 hPa 0 mm - 34 W/m² -
1787785005 37.78° C 37% 1007.8 hPa 0 mm - 41 W/m² -
1787784700 38.33° C 36% 1008.1 hPa 0 mm - 125 W/m² -
1787784399 38.33° C 36% 1008 hPa 0 mm - 234 W/m² -
1787784099 38.89° C 35% 1008.2 hPa 0 mm - 248 W/m² -
1787783796 39.44° C 35% 1008.3 hPa 0 mm - 262 W/m² -

* Rain latest hour (hover to see other rain measurements)
** Current wind speed in m/s (hover to see current wind gust speed)